Year,Month,Day,Hour,Minute,Value (Times are PST for temperature in C)
2009,09,20,00,00,11.90
2009,09,20,00,01,12.00
2009,09,20,00,02,12.00
2009,09,20,00,03,12.00
2009,09,20,00,04,12.00
2009,09,20,00,05,12.00
2009,09,20,00,06,12.00
2009,09,20,00,07,12.00
2009,09,20,00,08,11.90
2009,09,20,00,09,11.90
2009,09,20,00,10,11.90
2009,09,20,00,11,11.80
2009,09,20,00,12,11.80
2009,09,20,00,13,11.90
2009,09,20,00,14,11.90
2009,09,20,00,15,11.90
2009,09,20,00,16,11.90
2009,09,20,00,17,11.80
2009,09,20,00,18,11.80
2009,09,20,00,19,11.80
2009,09,20,00,20,11.80
2009,09,20,00,21,11.80
2009,09,20,00,22,11.80
2009,09,20,00,23,11.80
2009,09,20,00,24,11.80
2009,09,20,00,25,11.80
2009,09,20,00,26,11.80
2009,09,20,00,27,11.80
2009,09,20,00,28,11.80
2009,09,20,00,29,11.80
2009,09,20,00,30,11.80
2009,09,20,00,31,11.80
2009,09,20,00,32,11.80
2009,09,20,00,33,11.80
2009,09,20,00,34,11.80
2009,09,20,00,35,11.80
2009,09,20,00,36,11.80
2009,09,20,00,37,11.80
2009,09,20,00,38,11.80
2009,09,20,00,39,11.80
2009,09,20,00,40,11.80
2009,09,20,00,41,11.80
2009,09,20,00,42,11.80
2009,09,20,00,43,11.80
2009,09,20,00,44,11.80
2009,09,20,00,45,11.80
2009,09,20,00,46,11.70
2009,09,20,00,47,11.70
2009,09,20,00,48,11.70
2009,09,20,00,49,11.70
2009,09,20,00,50,11.60
2009,09,20,00,51,11.60
2009,09,20,00,52,11.50
2009,09,20,00,53,11.40
2009,09,20,00,54,11.40
2009,09,20,00,55,11.40
2009,09,20,00,56,11.30
2009,09,20,00,57,11.30
2009,09,20,00,58,11.20
2009,09,20,00,59,11.10
2009,09,20,01,00,11.10
2009,09,20,01,01,10.90
2009,09,20,01,02,10.90
2009,09,20,01,03,10.80
2009,09,20,01,04,10.80
2009,09,20,01,05,10.80
2009,09,20,01,06,10.70
2009,09,20,01,07,10.70
2009,09,20,01,08,10.70
2009,09,20,01,09,10.70
2009,09,20,01,10,10.70
2009,09,20,01,11,10.60
2009,09,20,01,12,10.60
2009,09,20,01,13,10.60
2009,09,20,01,14,10.60
2009,09,20,01,15,10.60
2009,09,20,01,16,10.60
2009,09,20,01,17,10.50
2009,09,20,01,18,10.40
2009,09,20,01,19,10.40
2009,09,20,01,20,10.40
2009,09,20,01,21,10.40
2009,09,20,01,22,10.40
2009,09,20,01,23,10.40
2009,09,20,01,24,10.40
2009,09,20,01,25,10.40
2009,09,20,01,26,10.40
2009,09,20,01,27,10.40
2009,09,20,01,28,10.40
2009,09,20,01,29,10.40
2009,09,20,01,30,10.40
2009,09,20,01,31,10.40
2009,09,20,01,32,10.40
2009,09,20,01,33,10.40
2009,09,20,01,34,10.40
2009,09,20,01,35,10.30
2009,09,20,01,36,10.30
2009,09,20,01,37,10.30
2009,09,20,01,38,10.30
2009,09,20,01,39,10.20
2009,09,20,01,40,10.20
2009,09,20,01,41,10.20
2009,09,20,01,42,10.10
2009,09,20,01,43,10.10
2009,09,20,01,44,10.10
2009,09,20,01,45,10.10
2009,09,20,01,46,10.10
2009,09,20,01,47,9.90
2009,09,20,01,48,9.90
2009,09,20,01,49,9.90
2009,09,20,01,50,9.90
2009,09,20,01,51,9.90
2009,09,20,01,52,9.90
2009,09,20,01,53,9.80
2009,09,20,01,54,9.80
2009,09,20,01,55,9.80
2009,09,20,01,56,9.80
2009,09,20,01,57,9.70
2009,09,20,01,58,9.70
2009,09,20,01,59,9.70
2009,09,20,02,00,9.70
2009,09,20,02,01,9.70
2009,09,20,02,02,9.70
2009,09,20,02,03,9.70
2009,09,20,02,04,9.70
2009,09,20,02,05,9.70
2009,09,20,02,06,9.70
2009,09,20,02,07,9.70
2009,09,20,02,08,9.70
2009,09,20,02,09,9.70
2009,09,20,02,10,9.70
2009,09,20,02,11,9.70
2009,09,20,02,12,9.70
2009,09,20,02,13,9.70
2009,09,20,02,14,9.70
2009,09,20,02,15,9.70
2009,09,20,02,16,9.80
2009,09,20,02,17,9.80
2009,09,20,02,18,9.80
2009,09,20,02,19,9.80
2009,09,20,02,20,9.80
2009,09,20,02,21,9.80
2009,09,20,02,22,9.80
2009,09,20,02,23,9.90
2009,09,20,02,24,9.90
2009,09,20,02,25,9.90
2009,09,20,02,26,10.00
2009,09,20,02,27,10.10
2009,09,20,02,28,10.10
2009,09,20,02,29,10.10
2009,09,20,02,30,10.00
2009,09,20,02,31,9.90
2009,09,20,02,32,9.90
2009,09,20,02,33,9.90
2009,09,20,02,34,9.90
2009,09,20,02,35,9.90
2009,09,20,02,36,9.90
2009,09,20,02,37,9.90
2009,09,20,02,38,9.80
2009,09,20,02,39,9.80
2009,09,20,02,40,9.80
2009,09,20,02,41,9.80
2009,09,20,02,42,9.70
2009,09,20,02,43,9.70
2009,09,20,02,44,9.70
2009,09,20,02,45,9.70
2009,09,20,02,46,9.70
2009,09,20,02,47,9.70
2009,09,20,02,48,9.60
2009,09,20,02,49,9.60
2009,09,20,02,50,9.60
2009,09,20,02,51,9.50
2009,09,20,02,52,9.50
2009,09,20,02,53,9.40
2009,09,20,02,54,9.40
2009,09,20,02,55,9.40
2009,09,20,02,56,9.40
2009,09,20,02,57,9.30
2009,09,20,02,58,9.30
2009,09,20,02,59,9.30
2009,09,20,03,00,9.30
2009,09,20,03,01,9.30
2009,09,20,03,02,9.30
2009,09,20,03,03,9.30
2009,09,20,03,04,9.30
2009,09,20,03,05,9.30
2009,09,20,03,06,9.30
2009,09,20,03,07,9.30
2009,09,20,03,08,9.30
2009,09,20,03,09,9.30
2009,09,20,03,10,9.30
2009,09,20,03,11,9.30
2009,09,20,03,12,9.30
2009,09,20,03,13,9.30
2009,09,20,03,14,9.20
2009,09,20,03,15,9.20
2009,09,20,03,16,9.20
2009,09,20,03,17,9.20
2009,09,20,03,18,9.20
2009,09,20,03,19,9.20
2009,09,20,03,20,9.10
2009,09,20,03,21,9.10
2009,09,20,03,22,9.10
2009,09,20,03,23,9.10
2009,09,20,03,24,9.10
2009,09,20,03,25,9.00
2009,09,20,03,26,9.00
2009,09,20,03,27,9.00
2009,09,20,03,28,9.00
2009,09,20,03,29,8.90
2009,09,20,03,30,8.90
2009,09,20,03,31,8.90
2009,09,20,03,32,8.90
2009,09,20,03,33,8.90
2009,09,20,03,34,8.90
2009,09,20,03,35,8.80
2009,09,20,03,36,8.80
2009,09,20,03,37,8.80
2009,09,20,03,38,8.70
2009,09,20,03,39,8.70
2009,09,20,03,40,8.70
2009,09,20,03,41,8.70
2009,09,20,03,42,8.70
2009,09,20,03,43,8.70
2009,09,20,03,44,8.70
2009,09,20,03,45,8.60
2009,09,20,03,46,8.60
2009,09,20,03,47,8.60
2009,09,20,03,48,8.60
2009,09,20,03,49,8.50
2009,09,20,03,50,8.50
2009,09,20,03,51,8.50
2009,09,20,03,52,8.50
2009,09,20,03,53,8.40
2009,09,20,03,54,8.40
2009,09,20,03,55,8.40
2009,09,20,03,56,8.40
2009,09,20,03,57,8.40
2009,09,20,03,58,8.30
2009,09,20,03,59,8.30
2009,09,20,04,00,8.30
2009,09,20,04,01,8.30
2009,09,20,04,02,8.30
2009,09,20,04,03,8.30
2009,09,20,04,04,8.30
2009,09,20,04,05,8.30
2009,09,20,04,06,8.30
2009,09,20,04,07,8.40
2009,09,20,04,08,8.40
2009,09,20,04,09,8.40
2009,09,20,04,10,8.50
2009,09,20,04,11,8.50
2009,09,20,04,12,8.50
2009,09,20,04,13,8.50
2009,09,20,04,14,8.50
2009,09,20,04,15,8.50
2009,09,20,04,16,8.50
2009,09,20,04,17,8.50
2009,09,20,04,18,8.50
2009,09,20,04,19,8.50
2009,09,20,04,20,8.50
2009,09,20,04,21,8.60
2009,09,20,04,22,8.60
2009,09,20,04,23,8.50
2009,09,20,04,24,8.50
2009,09,20,04,25,8.50
2009,09,20,04,26,8.40
2009,09,20,04,27,8.40
2009,09,20,04,28,8.30
2009,09,20,04,29,8.30
2009,09,20,04,30,8.30
2009,09,20,04,31,8.20
2009,09,20,04,32,8.20
2009,09,20,04,33,8.20
2009,09,20,04,34,8.20
2009,09,20,04,35,8.20
2009,09,20,04,36,8.10
2009,09,20,04,37,8.10
2009,09,20,04,38,8.10
2009,09,20,04,39,8.00
2009,09,20,04,40,8.00
2009,09,20,04,41,8.00
2009,09,20,04,42,8.00
2009,09,20,04,43,7.90
2009,09,20,04,44,7.90
2009,09,20,04,45,7.90
2009,09,20,04,46,7.90
2009,09,20,04,47,7.80
2009,09,20,04,48,7.80
2009,09,20,04,49,7.80
2009,09,20,04,50,7.80
2009,09,20,04,51,7.80
2009,09,20,04,52,7.80
2009,09,20,04,53,7.80
2009,09,20,04,54,7.80
2009,09,20,04,55,7.80
2009,09,20,04,56,7.80
2009,09,20,04,57,7.70
2009,09,20,04,58,7.70
2009,09,20,04,59,7.70
2009,09,20,05,00,7.70
2009,09,20,05,01,7.70
2009,09,20,05,02,7.70
2009,09,20,05,03,7.70
2009,09,20,05,04,7.70
2009,09,20,05,05,7.70
2009,09,20,05,06,7.80
2009,09,20,05,07,7.80
2009,09,20,05,08,7.80
2009,09,20,05,09,7.80
2009,09,20,05,10,7.80
2009,09,20,05,11,7.80
2009,09,20,05,12,7.70
2009,09,20,05,13,7.70
2009,09,20,05,14,7.70
2009,09,20,05,15,7.70
2009,09,20,05,16,7.70
2009,09,20,05,17,7.70
2009,09,20,05,18,7.60
2009,09,20,05,19,7.60
2009,09,20,05,20,7.60
2009,09,20,05,21,7.60
2009,09,20,05,22,7.60
2009,09,20,05,23,7.50
2009,09,20,05,24,7.50
2009,09,20,05,25,7.50
2009,09,20,05,26,7.50
2009,09,20,05,27,7.40
2009,09,20,05,28,7.40
2009,09,20,05,29,7.40
2009,09,20,05,30,7.30
2009,09,20,05,31,7.30
2009,09,20,05,32,7.30
2009,09,20,05,33,7.30
2009,09,20,05,34,7.30
2009,09,20,05,35,7.30
2009,09,20,05,36,7.30
2009,09,20,05,37,7.20
2009,09,20,05,38,7.20
2009,09,20,05,39,7.20
2009,09,20,05,40,7.20
2009,09,20,05,41,7.20
2009,09,20,05,42,7.10
2009,09,20,05,43,7.10
2009,09,20,05,44,7.10
2009,09,20,05,45,7.10
2009,09,20,05,46,7.00
2009,09,20,05,47,7.00
2009,09,20,05,48,7.00
2009,09,20,05,49,7.00
2009,09,20,05,50,7.00
2009,09,20,05,51,7.00
2009,09,20,05,52,7.00
2009,09,20,05,53,7.00
2009,09,20,05,54,7.00
2009,09,20,05,55,6.90
2009,09,20,05,56,6.90
2009,09,20,05,57,6.90
2009,09,20,05,58,6.90
2009,09,20,05,59,6.90
2009,09,20,06,00,6.90
2009,09,20,06,01,6.90
2009,09,20,06,02,6.90
2009,09,20,06,03,6.90
2009,09,20,06,04,6.90
2009,09,20,06,05,6.90
2009,09,20,06,06,6.90
2009,09,20,06,07,6.90
2009,09,20,06,08,6.90
2009,09,20,06,09,6.90
2009,09,20,06,10,6.90
2009,09,20,06,11,6.90
2009,09,20,06,12,6.90
2009,09,20,06,13,6.90
2009,09,20,06,14,6.90
2009,09,20,06,15,6.90
2009,09,20,06,16,6.90
2009,09,20,06,17,6.90
2009,09,20,06,18,6.90
2009,09,20,06,19,6.90
2009,09,20,06,20,6.90
2009,09,20,06,21,6.90
2009,09,20,06,22,6.90
2009,09,20,06,23,6.90
2009,09,20,06,24,6.90
2009,09,20,06,25,6.80
2009,09,20,06,26,6.80
2009,09,20,06,27,6.80
2009,09,20,06,28,6.80
2009,09,20,06,29,6.80
2009,09,20,06,30,6.80
2009,09,20,06,31,6.80
2009,09,20,06,32,6.80
2009,09,20,06,33,6.80
2009,09,20,06,34,6.70
2009,09,20,06,35,6.70
2009,09,20,06,36,6.70
2009,09,20,06,37,6.70
2009,09,20,06,38,6.70
2009,09,20,06,39,6.60
2009,09,20,06,40,6.60
2009,09,20,06,41,6.60
2009,09,20,06,42,6.60
2009,09,20,06,43,6.60
2009,09,20,06,44,6.60
2009,09,20,06,45,6.60
2009,09,20,06,46,6.60
2009,09,20,06,47,6.60
2009,09,20,06,48,6.60
2009,09,20,06,49,6.60
2009,09,20,06,50,6.60
2009,09,20,06,51,6.60
2009,09,20,06,52,6.60
2009,09,20,06,53,6.60
2009,09,20,06,54,6.60
2009,09,20,06,55,6.60
2009,09,20,06,56,6.60
2009,09,20,06,57,6.60
2009,09,20,06,58,6.60
2009,09,20,06,59,6.60
2009,09,20,07,00,6.60
2009,09,20,07,01,6.60
2009,09,20,07,02,6.60
2009,09,20,07,03,6.60
2009,09,20,07,04,6.60
2009,09,20,07,05,6.60
2009,09,20,07,06,6.60
2009,09,20,07,07,6.60
2009,09,20,07,08,6.60
2009,09,20,07,09,6.60
2009,09,20,07,10,6.60
2009,09,20,07,11,6.60
2009,09,20,07,12,6.60
2009,09,20,07,13,6.60
2009,09,20,07,14,6.60
2009,09,20,07,15,6.60
2009,09,20,07,16,6.60
2009,09,20,07,17,6.60
2009,09,20,07,18,6.60
2009,09,20,07,19,6.60
2009,09,20,07,20,6.60
2009,09,20,07,21,6.60
2009,09,20,07,22,6.60
2009,09,20,07,23,6.60
2009,09,20,07,24,6.60
2009,09,20,07,25,6.60
2009,09,20,07,26,6.60
2009,09,20,07,27,6.60
2009,09,20,07,28,6.60
2009,09,20,07,29,6.60
2009,09,20,07,30,6.60
2009,09,20,07,31,6.60
2009,09,20,07,32,6.60
2009,09,20,07,33,6.60
2009,09,20,07,34,6.60
2009,09,20,07,35,6.60
2009,09,20,07,36,6.60
2009,09,20,07,37,6.60
2009,09,20,07,38,6.60
2009,09,20,07,39,6.60
2009,09,20,07,40,6.60
2009,09,20,07,41,6.60
2009,09,20,07,42,6.60
2009,09,20,07,43,6.60
2009,09,20,07,44,6.60
2009,09,20,07,45,6.60
2009,09,20,07,46,6.60
2009,09,20,07,47,6.60
2009,09,20,07,48,6.60
2009,09,20,07,49,6.60
2009,09,20,07,50,6.60
2009,09,20,07,51,6.60
2009,09,20,07,52,6.60
2009,09,20,07,53,6.60
2009,09,20,07,54,6.70
2009,09,20,07,55,6.70
2009,09,20,07,56,6.70
2009,09,20,07,57,6.70
2009,09,20,07,58,6.70
2009,09,20,07,59,6.70
2009,09,20,08,00,6.70
2009,09,20,08,01,6.70
2009,09,20,08,02,6.70
2009,09,20,08,03,6.80
2009,09,20,08,04,6.80
2009,09,20,08,05,6.80
2009,09,20,08,06,6.80
2009,09,20,08,07,6.80
2009,09,20,08,08,6.80
2009,09,20,08,09,6.80
2009,09,20,08,10,6.80
2009,09,20,08,11,6.80
2009,09,20,08,12,6.80
2009,09,20,08,13,6.80
2009,09,20,08,14,6.80
2009,09,20,08,15,6.80
2009,09,20,08,16,6.80
2009,09,20,08,17,6.80
2009,09,20,08,18,6.80
2009,09,20,08,19,6.80
2009,09,20,08,20,6.80
2009,09,20,08,21,6.80
2009,09,20,08,22,6.80
2009,09,20,08,23,6.90
2009,09,20,08,24,6.90
2009,09,20,08,25,6.90
2009,09,20,08,26,7.00
2009,09,20,08,27,7.00
2009,09,20,08,28,7.00
2009,09,20,08,29,7.10
2009,09,20,08,30,7.10
2009,09,20,08,31,7.20
2009,09,20,08,32,7.20
2009,09,20,08,33,7.20
2009,09,20,08,34,7.30
2009,09,20,08,35,7.30
2009,09,20,08,36,7.30
2009,09,20,08,37,7.30
2009,09,20,08,38,7.30
2009,09,20,08,39,7.30
2009,09,20,08,40,7.40
2009,09,20,08,41,7.50
2009,09,20,08,42,7.50
2009,09,20,08,43,7.50
2009,09,20,08,44,7.60
2009,09,20,08,45,7.60
2009,09,20,08,46,7.70
2009,09,20,08,47,7.70
2009,09,20,08,48,7.80
2009,09,20,08,49,7.80
2009,09,20,08,50,7.90
2009,09,20,08,51,7.90
2009,09,20,08,52,8.00
2009,09,20,08,53,8.00
2009,09,20,08,54,8.10
2009,09,20,08,55,8.20
2009,09,20,08,56,8.20
2009,09,20,08,57,8.30
2009,09,20,08,58,8.30
2009,09,20,08,59,8.40
2009,09,20,09,00,8.50
2009,09,20,09,01,8.60
2009,09,20,09,02,8.60
2009,09,20,09,03,8.70
2009,09,20,09,04,8.70
2009,09,20,09,05,8.70
2009,09,20,09,06,8.70
2009,09,20,09,07,8.70
2009,09,20,09,08,8.70
2009,09,20,09,09,8.70
2009,09,20,09,10,8.80
2009,09,20,09,11,8.90
2009,09,20,09,12,9.00
2009,09,20,09,13,9.10
2009,09,20,09,14,9.20
2009,09,20,09,15,9.30
2009,09,20,09,16,9.40
2009,09,20,09,17,9.60
2009,09,20,09,18,9.70
2009,09,20,09,19,9.90
2009,09,20,09,20,10.10
2009,09,20,09,21,10.30
2009,09,20,09,22,10.40
2009,09,20,09,23,10.60
2009,09,20,09,24,10.70
2009,09,20,09,25,10.80
2009,09,20,09,26,10.90
2009,09,20,09,27,10.90
2009,09,20,09,28,11.00
2009,09,20,09,29,11.10
2009,09,20,09,30,11.10
2009,09,20,09,31,11.20
2009,09,20,09,32,11.30
2009,09,20,09,33,11.30
2009,09,20,09,34,11.40
2009,09,20,09,35,11.50
2009,09,20,09,36,11.60
2009,09,20,09,37,11.60
2009,09,20,09,38,11.70
2009,09,20,09,39,11.70
2009,09,20,09,40,11.80
2009,09,20,09,41,11.80
2009,09,20,09,42,11.90
2009,09,20,09,43,11.90
2009,09,20,09,44,12.00
2009,09,20,09,45,12.10
2009,09,20,09,46,12.20
2009,09,20,09,47,12.30
2009,09,20,09,48,12.50
2009,09,20,09,49,12.60
2009,09,20,09,50,12.80
2009,09,20,09,51,13.00
2009,09,20,09,52,13.10
2009,09,20,09,53,13.30
2009,09,20,09,54,13.40
2009,09,20,09,55,13.50
2009,09,20,09,56,13.60
2009,09,20,09,57,13.70
2009,09,20,09,58,13.80
2009,09,20,09,59,13.90
2009,09,20,10,00,13.90
2009,09,20,10,01,14.00
2009,09,20,10,02,14.10
2009,09,20,10,03,14.20
2009,09,20,10,04,14.20
2009,09,20,10,05,14.30
2009,09,20,10,06,14.40
2009,09,20,10,07,14.40
2009,09,20,10,08,14.50
2009,09,20,10,09,14.50
2009,09,20,10,10,14.60
2009,09,20,10,11,14.60
2009,09,20,10,12,14.60
2009,09,20,10,13,14.70
2009,09,20,10,14,14.80
2009,09,20,10,15,14.80
2009,09,20,10,16,14.80
2009,09,20,10,17,14.90
2009,09,20,10,18,15.00
2009,09,20,10,19,15.00
2009,09,20,10,20,15.00
2009,09,20,10,21,15.10
2009,09,20,10,22,15.10
2009,09,20,10,23,15.20
2009,09,20,10,24,15.30
2009,09,20,10,25,15.30
2009,09,20,10,26,15.30
2009,09,20,10,27,15.30
2009,09,20,10,28,15.30
2009,09,20,10,29,15.40
2009,09,20,10,30,15.40
2009,09,20,10,31,15.50
2009,09,20,10,32,15.50
2009,09,20,10,33,15.60
2009,09,20,10,34,15.60
2009,09,20,10,35,15.60
2009,09,20,10,36,15.70
2009,09,20,10,37,15.70
2009,09,20,10,38,15.80
2009,09,20,10,39,15.80
2009,09,20,10,40,15.80
2009,09,20,10,41,15.80
2009,09,20,10,42,15.80
2009,09,20,10,43,15.80
2009,09,20,10,44,15.90
2009,09,20,10,45,15.90
2009,09,20,10,46,15.90
2009,09,20,10,47,15.90
2009,09,20,10,48,15.80
2009,09,20,10,49,15.80
2009,09,20,10,50,15.80
2009,09,20,10,51,15.80
2009,09,20,10,52,15.90
2009,09,20,10,53,15.90
2009,09,20,10,54,15.90
2009,09,20,10,55,15.90
2009,09,20,10,56,15.90
2009,09,20,10,57,15.90
2009,09,20,10,58,15.90
2009,09,20,10,59,16.10
2009,09,20,11,00,16.00
2009,09,20,11,01,15.90
2009,09,20,11,02,15.90
2009,09,20,11,03,15.80
2009,09,20,11,04,15.80
2009,09,20,11,05,15.80
2009,09,20,11,06,15.80
2009,09,20,11,07,15.90
2009,09,20,11,08,16.00
2009,09,20,11,09,16.10
2009,09,20,11,10,16.10
2009,09,20,11,11,16.20
2009,09,20,11,12,16.20
2009,09,20,11,13,16.30
2009,09,20,11,14,16.30
2009,09,20,11,15,16.40
2009,09,20,11,16,16.40
2009,09,20,11,17,16.40
2009,09,20,11,18,16.50
2009,09,20,11,19,16.60
2009,09,20,11,20,16.70
2009,09,20,11,21,16.70
2009,09,20,11,22,16.70
2009,09,20,11,23,16.70
2009,09,20,11,24,16.60
2009,09,20,11,25,16.60
2009,09,20,11,26,16.50
2009,09,20,11,27,16.40
2009,09,20,11,28,16.40
2009,09,20,11,29,16.40
2009,09,20,11,30,16.30
2009,09,20,11,31,16.30
2009,09,20,11,32,16.30
2009,09,20,11,33,16.40
2009,09,20,11,34,16.30
2009,09,20,11,35,16.30
2009,09,20,11,36,16.30
2009,09,20,11,37,16.30
2009,09,20,11,38,16.40
2009,09,20,11,39,16.40
2009,09,20,11,40,16.50
2009,09,20,11,41,16.60
2009,09,20,11,42,16.80
2009,09,20,11,43,16.80
2009,09,20,11,44,16.90
2009,09,20,11,45,17.00
2009,09,20,11,46,17.00
2009,09,20,11,47,17.10
2009,09,20,11,48,17.20
2009,09,20,11,49,17.30
2009,09,20,11,50,17.30
2009,09,20,11,51,17.30
2009,09,20,11,52,17.30
2009,09,20,11,53,17.30
2009,09,20,11,54,17.30
2009,09,20,11,55,17.20
2009,09,20,11,56,17.20
2009,09,20,11,57,17.20
2009,09,20,11,58,17.20
2009,09,20,11,59,17.20
2009,09,20,12,00,17.20
2009,09,20,12,01,17.10
2009,09,20,12,02,17.00
2009,09,20,12,03,17.00
2009,09,20,12,04,16.90
2009,09,20,12,05,16.80
2009,09,20,12,06,16.70
2009,09,20,12,07,16.70
2009,09,20,12,08,16.70
2009,09,20,12,09,16.50
2009,09,20,12,10,16.40
2009,09,20,12,11,16.40
2009,09,20,12,12,16.40
2009,09,20,12,13,16.40
2009,09,20,12,14,16.40
2009,09,20,12,15,16.30
2009,09,20,12,16,16.30
2009,09,20,12,17,16.20
2009,09,20,12,18,16.20
2009,09,20,12,19,16.20
2009,09,20,12,20,16.10
2009,09,20,12,21,16.10
2009,09,20,12,22,16.10
2009,09,20,12,23,16.10
2009,09,20,12,24,16.10
2009,09,20,12,25,16.00
2009,09,20,12,26,15.90
2009,09,20,12,27,15.90
2009,09,20,12,28,15.90
2009,09,20,12,29,15.90
2009,09,20,12,30,15.90
2009,09,20,12,31,15.90
2009,09,20,12,32,15.90
2009,09,20,12,33,15.90
2009,09,20,12,34,15.90
2009,09,20,12,35,15.90
2009,09,20,12,36,15.90
2009,09,20,12,37,15.90
2009,09,20,12,38,15.80
2009,09,20,12,39,15.80
2009,09,20,12,40,15.80
2009,09,20,12,41,15.80
2009,09,20,12,42,15.80
2009,09,20,12,43,15.80
2009,09,20,12,44,15.70
2009,09,20,12,45,15.70
2009,09,20,12,46,15.70
2009,09,20,12,47,15.70
2009,09,20,12,48,15.70
2009,09,20,12,49,15.70
2009,09,20,12,50,15.70
2009,09,20,12,51,15.70
2009,09,20,12,52,15.80
2009,09,20,12,53,15.80
2009,09,20,12,54,15.80
2009,09,20,12,55,15.80
2009,09,20,12,56,15.80
2009,09,20,12,57,15.80
2009,09,20,12,58,15.80
2009,09,20,12,59,15.90
2009,09,20,13,00,15.90
2009,09,20,13,01,15.90
2009,09,20,13,02,15.90
2009,09,20,13,03,16.00
2009,09,20,13,04,16.10
2009,09,20,13,05,16.10
2009,09,20,13,06,16.10
2009,09,20,13,07,16.10
2009,09,20,13,08,16.10
2009,09,20,13,09,16.10
2009,09,20,13,10,16.10
2009,09,20,13,11,16.10
2009,09,20,13,12,16.10
2009,09,20,13,13,16.10
2009,09,20,13,14,16.10
2009,09,20,13,15,16.20
2009,09,20,13,16,16.20
2009,09,20,13,17,16.30
2009,09,20,13,18,16.40
2009,09,20,13,19,16.50
2009,09,20,13,20,16.70
2009,09,20,13,21,16.70
2009,09,20,13,22,16.90
2009,09,20,13,23,16.90
2009,09,20,13,24,16.90
2009,09,20,13,25,17.00
2009,09,20,13,26,17.00
2009,09,20,13,27,17.00
2009,09,20,13,28,17.00
2009,09,20,13,29,16.90
2009,09,20,13,30,16.90
2009,09,20,13,31,16.80
2009,09,20,13,32,16.80
2009,09,20,13,33,16.70
2009,09,20,13,34,16.70
2009,09,20,13,35,16.70
2009,09,20,13,36,16.70
2009,09,20,13,37,16.70
2009,09,20,13,38,16.70
2009,09,20,13,39,16.70
2009,09,20,13,40,16.70
2009,09,20,13,41,16.80
2009,09,20,13,42,16.80
2009,09,20,13,43,16.90
2009,09,20,13,44,17.00
2009,09,20,13,45,17.10
2009,09,20,13,46,17.20
2009,09,20,13,47,17.30
2009,09,20,13,48,17.30
2009,09,20,13,49,17.30
2009,09,20,13,50,17.30
2009,09,20,13,51,17.30
2009,09,20,13,52,17.30
2009,09,20,13,53,17.20
2009,09,20,13,54,17.20
2009,09,20,13,55,17.10
2009,09,20,13,56,17.00
2009,09,20,13,57,17.00
2009,09,20,13,58,16.90
2009,09,20,13,59,16.90
2009,09,20,14,00,16.90
2009,09,20,14,01,16.90
2009,09,20,14,02,17.00
2009,09,20,14,03,17.00
2009,09,20,14,04,17.10
2009,09,20,14,05,17.20
2009,09,20,14,06,17.30
2009,09,20,14,07,17.30
2009,09,20,14,08,17.40
2009,09,20,14,09,17.40
2009,09,20,14,10,17.50
2009,09,20,14,11,17.60
2009,09,20,14,12,17.70
2009,09,20,14,13,17.80
2009,09,20,14,14,17.90
2009,09,20,14,15,17.90
2009,09,20,14,16,17.90
2009,09,20,14,17,18.00
2009,09,20,14,18,18.10
2009,09,20,14,19,18.10
2009,09,20,14,20,18.20
2009,09,20,14,21,18.20
2009,09,20,14,22,18.20
2009,09,20,14,23,18.20
2009,09,20,14,24,18.20
2009,09,20,14,25,18.30
2009,09,20,14,26,18.30
2009,09,20,14,27,18.30
2009,09,20,14,28,18.30
2009,09,20,14,29,18.40
2009,09,20,14,30,18.40
2009,09,20,14,31,18.40
2009,09,20,14,32,18.40
2009,09,20,14,33,18.40
2009,09,20,14,34,18.40
2009,09,20,14,35,18.40
2009,09,20,14,36,18.40
2009,09,20,14,37,18.30
2009,09,20,14,38,18.20
2009,09,20,14,39,18.10
2009,09,20,14,40,18.00
2009,09,20,14,41,17.90
2009,09,20,14,42,17.80
2009,09,20,14,43,17.70
2009,09,20,14,44,17.70
2009,09,20,14,45,17.60
2009,09,20,14,46,17.50
2009,09,20,14,47,17.40
2009,09,20,14,48,17.40
2009,09,20,14,49,17.40
2009,09,20,14,50,17.40
2009,09,20,14,51,17.30
2009,09,20,14,52,17.30
2009,09,20,14,53,17.30
2009,09,20,14,54,17.30
2009,09,20,14,55,17.30
2009,09,20,14,56,17.30
2009,09,20,14,57,17.30
2009,09,20,14,58,17.30
2009,09,20,14,59,17.30
2009,09,20,15,00,17.40
2009,09,20,15,01,17.30
2009,09,20,15,02,17.30
2009,09,20,15,03,17.30
2009,09,20,15,04,17.30
2009,09,20,15,05,17.20
2009,09,20,15,06,17.20
2009,09,20,15,07,17.20
2009,09,20,15,08,17.20
2009,09,20,15,09,17.20
2009,09,20,15,10,17.20
2009,09,20,15,11,17.10
2009,09,20,15,12,17.00
2009,09,20,15,13,16.90
2009,09,20,15,14,16.90
2009,09,20,15,15,17.00
2009,09,20,15,16,17.00
2009,09,20,15,17,17.00
2009,09,20,15,18,17.10
2009,09,20,15,19,17.20
2009,09,20,15,20,17.20
2009,09,20,15,21,17.20
2009,09,20,15,22,17.30
2009,09,20,15,23,17.30
2009,09,20,15,24,17.40
2009,09,20,15,25,17.40
2009,09,20,15,26,17.40
2009,09,20,15,27,17.40
2009,09,20,15,28,17.30
2009,09,20,15,29,17.30
2009,09,20,15,30,17.30
2009,09,20,15,31,17.30
2009,09,20,15,32,17.20
2009,09,20,15,33,17.10
2009,09,20,15,34,17.00
2009,09,20,15,35,17.00
2009,09,20,15,36,17.00
2009,09,20,15,37,16.90
2009,09,20,15,38,16.90
2009,09,20,15,39,16.90
2009,09,20,15,40,16.90
2009,09,20,15,41,16.80
2009,09,20,15,42,16.80
2009,09,20,15,43,16.80
2009,09,20,15,44,16.70
2009,09,20,15,45,16.70
2009,09,20,15,46,16.70
2009,09,20,15,47,16.70
2009,09,20,15,48,16.80
2009,09,20,15,49,16.80
2009,09,20,15,50,16.80
2009,09,20,15,51,16.90
2009,09,20,15,52,16.90
2009,09,20,15,53,16.80
2009,09,20,15,54,16.80
2009,09,20,15,55,16.70
2009,09,20,15,56,16.70
2009,09,20,15,57,16.70
2009,09,20,15,58,16.80
2009,09,20,15,59,16.80
2009,09,20,16,00,16.80
2009,09,20,16,01,16.80
2009,09,20,16,02,16.80
2009,09,20,16,03,16.80
2009,09,20,16,04,16.80
2009,09,20,16,05,16.90
2009,09,20,16,06,16.90
2009,09,20,16,07,16.90
2009,09,20,16,08,16.90
2009,09,20,16,09,16.90
2009,09,20,16,10,16.90
2009,09,20,16,11,16.90
2009,09,20,16,12,16.90
2009,09,20,16,13,16.90
2009,09,20,16,14,16.90
2009,09,20,16,15,16.80
2009,09,20,16,16,16.80
2009,09,20,16,17,16.80
2009,09,20,16,18,16.70
2009,09,20,16,19,16.70
2009,09,20,16,20,16.60
2009,09,20,16,21,16.60
2009,09,20,16,22,16.60
2009,09,20,16,23,16.50
2009,09,20,16,24,16.40
2009,09,20,16,25,16.40
2009,09,20,16,26,16.40
2009,09,20,16,27,16.40
2009,09,20,16,28,16.30
2009,09,20,16,29,16.30
2009,09,20,16,30,16.20
2009,09,20,16,31,16.20
2009,09,20,16,32,16.20
2009,09,20,16,33,16.20
2009,09,20,16,34,16.10
2009,09,20,16,35,16.10
2009,09,20,16,36,16.10
2009,09,20,16,37,16.10
2009,09,20,16,38,16.10
2009,09,20,16,39,16.10
2009,09,20,16,40,16.10
2009,09,20,16,41,16.10
2009,09,20,16,42,16.10
2009,09,20,16,43,16.10
2009,09,20,16,44,16.10
2009,09,20,16,45,16.10
2009,09,20,16,46,16.10
2009,09,20,16,47,16.00
2009,09,20,16,48,15.90
2009,09,20,16,49,15.80
2009,09,20,16,50,15.80
2009,09,20,16,51,15.80
2009,09,20,16,52,15.80
2009,09,20,16,53,15.80
2009,09,20,16,54,15.80
2009,09,20,16,55,15.80
2009,09,20,16,56,15.80
2009,09,20,16,57,15.80
2009,09,20,16,58,15.80
2009,09,20,16,59,15.80
2009,09,20,17,00,15.80
2009,09,20,17,01,15.70
2009,09,20,17,02,15.70
2009,09,20,17,03,15.80
2009,09,20,17,04,15.70
2009,09,20,17,05,15.70
2009,09,20,17,06,15.70
2009,09,20,17,07,15.60
2009,09,20,17,08,15.60
2009,09,20,17,09,15.50
2009,09,20,17,10,15.40
2009,09,20,17,11,15.30
2009,09,20,17,12,15.30
2009,09,20,17,13,15.30
2009,09,20,17,14,15.30
2009,09,20,17,15,15.30
2009,09,20,17,16,15.20
2009,09,20,17,17,15.20
2009,09,20,17,18,15.20
2009,09,20,17,19,15.10
2009,09,20,17,20,15.10
2009,09,20,17,21,15.10
2009,09,20,17,22,15.10
2009,09,20,17,23,15.00
2009,09,20,17,24,15.00
2009,09,20,17,25,15.00
2009,09,20,17,26,14.90
2009,09,20,17,27,14.80
2009,09,20,17,28,14.80
2009,09,20,17,29,14.80
2009,09,20,17,30,14.80
2009,09,20,17,31,14.80
2009,09,20,17,32,14.80
2009,09,20,17,33,14.80
2009,09,20,17,34,14.80
2009,09,20,17,35,14.80
2009,09,20,17,36,14.80
2009,09,20,17,37,14.80
2009,09,20,17,38,14.80